Regional Weather Roundup
Issued by NWS

Home | Current Version | Previous Version | Text Only | Print | Product List | Glossary Off
Versions: 1 2 3 4 5 6 7 8 9 10 11 12 13 14 15 16 17 18 19 20 21 22 23 24 25 26 27 28 29 30 31 32 33 34 35 36 37 38 39 40 41 42 43 44 45 46 47 48 49 50

030
ASUS43 KOAX 231110
RWRNE

WEATHER ROUNDUP FOR NEBRASKA
NATIONAL WEATHER SERVICE OMAHA NE
500 AM CST FRI FEB 23 2018

NOTES: SATELLITE DATA IS BEING USED TO AUGMENT CLOUD COVER ABOVE
       12000 FEET.
       "FAIR" INDICATES FEW OR NO CLOUDS BELOW 12,000 FEET WITH NO
       SIGNIFICANT WEATHER AND/OR OBSTRUCTIONS TO VISIBILITY.


NEZ001>004-019>022-054>056-231200-
NEBRASKA PANHANDLE

CITY           SKY/WX    TMP DP  RH WIND       PRES   REMARKS
SCOTTSBLUFF    PTCLDY    11   8  88 NW7       30.08S WCI   0
ALLIANCE       CLOUDY    -1  -5  82 CALM      30.08S
CHADRON        PTCLDY   -10 -15  78 SW5       30.15S WCI -22
GORDON         FAIR       5   1  83 NW3       30.10S
KIMBALL        CLOUDY    13  10  87 W3        30.04R
SIDNEY         PTCLDY     7   5  91 W7        30.07R WCI  -5
$$

NEZ057>060-069>072-079>082-231200-
SOUTHWEST NEBRASKA

CITY           SKY/WX    TMP DP  RH WIND       PRES   REMARKS
NORTH PLATTE   PTCLDY     8   2  76 NW3       30.15S
IMPERIAL       CLEAR     14  12  92 SW3       30.13R
LEXINGTON      CLEAR      9   5  86 NW5       30.18S WCI   0
MCCOOK         FOG       19  18  95 W8        30.17F VSB 1   WCI   9
OGALLALA       CLEAR     10   8  89 W5        30.12R WCI   2
$$

NEZ005>010-023>029-035>040-094-231200-
NORTH CENTRAL NEBRASKA

CITY           SKY/WX    TMP DP  RH WIND       PRES   REMARKS
VALENTINE      PTCLDY    12   9  87 W10       30.16R WCI  -1
AINSWORTH      CLOUDY    18  17  96 NW10      30.15R WCI   6
BROKEN BOW     CLEAR      6   3  87 S3        30.16R
O`NEILL        CLOUDY    19  19  98 NW18      30.16R WCI   4
ORD            CLEAR      9   6  88 NW6       30.17R FOG     WCI  -1
THEDFORD         N/A      9   6  87 W6        30.14S WCI  -1
$$

NEZ041-046>049-061>064-073>077-083>087-231200-
SOUTH CENTRAL NEBRASKA

CITY           SKY/WX    TMP DP  RH WIND       PRES   REMARKS
GRAND ISLAND   CLEAR     20  16  84 W12       30.19R WCI   8
AURORA         CLEAR     15  13  92 W9        30.19R WCI   3
HASTINGS       CLEAR     20  16  84 W12       30.19R WCI   8
HEBRON         PTCLDY    24  22  92 W3        30.22R
HOLDREGE       CLEAR     18  17  97 W6        30.17S WCI  10
KEARNEY        CLEAR     16  14  92 W6        30.19R WCI   7
YORK           CLEAR     19  19 100 W8        30.19S WCI   9
$$

NEZ011>018-030>034-042>045-231200-
NORTHEAST NEBRASKA

CITY           SKY/WX    TMP DP  RH WIND       PRES   REMARKS
NORFOLK        CLOUDY    16  14  92 W10       30.16R WCI   4
ALBION         CLOUDY    15  12  88 CALM      30.17R
BLAIR          CLEAR     24  23  95 W5        30.17S FOG     WCI  18
COLUMBUS       CLEAR     16  13  88 W6        30.19S FOG     WCI   7
FREMONT        CLEAR     16  15  96 W5        30.19S FOG     WCI   9
TEKAMAH        CLEAR     20  18  92 W12       30.19S WCI   8
WAYNE          CLOUDY    14  13  96 CALM      30.17R
$$

NEZ050>053-065>068-078-088>093-231200-
SOUTHEAST NEBRASKA

CITY           SKY/WX    TMP DP  RH WIND       PRES   REMARKS
LINCOLN        CLEAR     24  22  91 W6        30.22R WCI  17
OMAHA EPPLEY   PTCLDY    27  24  89 W10       30.19S FOG     WCI  17
BEATRICE       CLOUDY    29  27  90 NW8       30.21R WCI  21
FALLS CITY     CLOUDY    32  30  92 W9        30.21R WCI  24
NEBRASKA CITY  CLOUDY    27  27 100 W5        30.20R WCI  22
PLATTSMOUTH    CLEAR     25  24  96 W6        30.19S WCI  18
$$

NEZ044-045-051>053-067-231200-
OMAHA AREA

CITY           SKY/WX    TMP DP  RH WIND       PRES   REMARKS
OMAHA EPPLEY   PTCLDY    27  24  89 W10       30.19S FOG     WCI  17
BLAIR          CLEAR     24  23  95 W5        30.17S FOG     WCI  18
FREMONT        CLEAR     16  15  96 W5        30.19S FOG     WCI   9
MILLARD        CLEAR     27  24  89 NW5       30.19F WCI  22
OFFUTT AFB     CLEAR     26  24  90 W5        30.19R WCI  20
PLATTSMOUTH    CLEAR     25  24  96 W6        30.19S WCI  18
WAHOO          FAIR      20  19  93 W7        30.19S FOG     WCI  11
$$




USA.gov is the U.S. government's official web portal to all federal, state and local government web resources and services.